CW0060 Weather Reports


Display with metric or nautical units.
time (UTC)temp
F
wind
direction
speed
MPH
gust
MPH
rain 1hr
in
rain 24hr
in
rain mn
in
humidity
%
barometer
mb
20260502222705 53 53 2.0 3.0 0.00 0.00 0.00 64 1015.6
20260502222205 53 56 2.0 3.0 0.00 0.00 0.00 63 1015.5
20260502221705 54 68 2.0 3.0 0.00 0.00 0.00 63 1015.6
20260502220704 54 53 1.0 2.0 0.00 0.00 0.00 63 1015.6
20260502220205 54 135 0.0 1.0 0.00 0.00 0.00 62 1015.6
20260502215705 54 46 0.0 3.0 0.00 0.00 0.00 62 1015.6
20260502215205 55 331 0.0 3.0 0.00 0.00 0.00 62 1015.6
20260502214205 55 53 1.0 2.0 0.00 0.00 0.00 61 1015.6
20260502213206 56 46 0.0 2.0 0.00 0.00 0.00 60 1015.6
20260502212705 56 35 0.0 2.0 0.00 0.00 0.00 60 1015.6
20260502212205 56 1 0.0 3.0 0.00 0.00 0.00 59 1015.6
20260502211705 56 89 1.0 4.0 0.00 0.00 0.00 59 1015.6
20260502211205 57 89 1.0 4.0 0.00 0.00 0.00 58 1015.6
20260502210705 57 51 2.0 4.0 0.00 0.00 0.00 58 1015.6
20260502210206 57 135 2.0 4.0 0.00 0.00 0.00 56 1015.6
20260502205706 58 46 2.0 4.0 0.00 0.00 0.00 56 1015.6
20260502205206 58 79 1.0 3.0 0.00 0.00 0.00 56 1015.6
20260502204705 58 89 1.0 3.0 0.00 0.00 0.00 55 1015.6
20260502203705 59 63 2.0 4.0 0.00 0.00 0.00 53 1015.7
20260502203205 59 60 2.0 4.0 0.00 0.00 0.00 53 1015.7
20260502202705 60 89 2.0 4.0 0.00 0.00 0.00 53 1015.8
20260502201205 61 89 1.0 2.0 0.00 0.00 0.00 51 1015.8
20260502200705 61 117 1.0 2.0 0.00 0.00 0.00 50 1015.8
20260502200205 61 56 1.0 3.0 0.00 0.00 0.00 50 1015.8
20260502195705 62 89 1.0 4.0 0.00 0.00 0.00 49 1015.8
20260502195206 62 35 2.0 4.0 0.00 0.00 0.00 49 1015.8
20260502194706 62 63 2.0 4.0 0.00 0.00 0.00 49 1015.8
20260502194205 63 84 3.0 4.0 0.00 0.00 0.00 48 1015.8
20260502193705 63 76 3.0 3.0 0.00 0.00 0.00 47 1015.8
20260502193205 64 102 2.0 4.0 0.00 0.00 0.00 47 1015.7
20260502192705 64 89 2.0 4.0 0.00 0.00 0.00 46 1015.7
20260502191706 65 51 2.0 3.0 0.00 0.00 0.00 45 1015.7
20260502191205 66 56 2.0 2.0 0.00 0.00 0.00 45 1015.7
20260502190705 66 63 1.0 2.0 0.00 0.00 0.00 44 1015.7
20260502190205 67 46 1.0 3.0 0.00 0.00 0.00 43 1015.7
20260502185705 68 46 1.0 3.0 0.00 0.00 0.00 43 1015.7
20260502185206 68 46 2.0 3.0 0.00 0.00 0.00 42 1015.6
20260502184705 69 63 2.0 3.0 0.00 0.00 0.00 41 1015.6
20260502184205 69 74 2.0 3.0 0.00 0.00 0.00 40 1015.5
20260502183705 70 68 2.0 3.0 0.00 0.00 0.00 40 1015.5
20260502183205 70 49 2.0 4.0 0.00 0.00 0.00 40 1015.4
20260502182708 71 96 2.0 4.0 0.00 0.00 0.00 40 1015.5
20260502182206 71 53 3.0 4.0 0.00 0.00 0.00 40 1015.5
20260502181705 71 63 3.0 4.0 0.00 0.00 0.00 41 1015.5
20260502181205 71 60 2.0 4.0 0.00 0.00 0.00 42 1015.6
20260502180205 71 67 1.0 2.0 0.00 0.00 0.00 43 1015.6
20260502170205 75 169 2.0 5.0 0.00 0.00 0.00 32 1015.8
20260502164205 76 178 4.0 8.0 0.00 0.00 0.00 31 1015.8
20260502163705 77 151 4.0 8.0 0.00 0.00 0.00 28 1015.8
20260502163206 77 186 4.0 8.0 0.00 0.00 0.00 29 1015.9
20260502162705 77 117 3.0 7.0 0.00 0.00 0.00 28 1016.0
20260502162204 78 115 3.0 6.0 0.00 0.00 0.00 27 1016.1
20260502161705 78 89 3.0 6.0 0.00 0.00 0.00 29 1016.2
20260502161205 77 114 3.0 7.0 0.00 0.00 0.00 26 1016.4
20260502160705 77 195 3.0 7.0 0.00 0.00 0.00 27 1016.5
20260502160206 77 219 3.0 7.0 0.00 0.00 0.00 26 1016.5
20260502152206 77 203 3.0 10.0 0.00 0.00 0.00 28 1016.8
20260502151705 77 290 3.0 10.0 0.00 0.00 0.00 28 1017.0
20260502151206 78 196 4.0 10.0 0.00 0.00 0.00 27 1017.1
20260502150204 78 131 3.0 7.0 0.00 0.00 0.00 27 1017.1
20260502130208 77 107 5.0 12.0 0.00 0.00 0.00 32 1018.6
20260502123705 78 162 3.0 11.0 0.00 0.00 0.00 33 1018.8
20260502123205 77 229 3.0 11.0 0.00 0.00 0.00 32 1019.0
20260502122705 77 245 4.0 11.0 0.00 0.00 0.00 33 1019.0
20260502122206 77 139 4.0 9.0 0.00 0.00 0.00 33 1019.2
20260502121706 76 98 3.0 7.0 0.00 0.00 0.00 37 1019.3
20260502121232 75 188 3.0 10.0 0.00 0.00 0.00 36 1019.4
20260502120705 74 50 3.0 10.0 0.00 0.00 0.00 35 1019.5
20260502120205 75 60 4.0 10.0 0.00 0.00 0.00 34 1019.6
20260502115206 74 1 3.0 8.0 0.00 0.00 0.00 38 1019.7
20260502114705 74 127 3.0 9.0 0.00 0.00 0.00 35 1019.8
20260502113705 74 96 4.0 9.0 0.00 0.00 0.00 35 1019.9
20260502112705 73 178 3.0 10.0 0.00 0.00 0.00 40 1020.0
20260502111206 73 156 4.0 9.0 0.00 0.00 0.00 39 1020.3
20260502110705 73 229 4.0 9.0 0.00 0.00 0.00 36 1020.4
20260502110205 73 132 4.0 9.0 0.00 0.00 0.00 37 1020.4
20260502105705 73 123 4.0 9.0 0.00 0.00 0.00 38 1020.4
20260502105205 72 205 3.0 9.0 0.00 0.00 0.00 38 1020.4
20260502104705 72 132 4.0 8.0 0.00 0.00 0.00 38 1020.4
20260502104206 73 104 4.0 9.0 0.00 0.00 0.00 40 1020.5
20260502103705 73 106 4.0 10.0 0.00 0.00 0.00 38 1020.6
20260502103205 72 89 3.0 10.0 0.00 0.00 0.00 43 1020.6
20260502102206 70 144 4.0 7.0 0.00 0.00 0.00 43 1020.7
20260502101206 70 77 2.0 7.0 0.00 0.00 0.00 44 1021.1
20260502100706 70 28 3.0 7.0 0.00 0.00 0.00 44 1021.1
20260502100205 69 63 3.0 7.0 0.00 0.00 0.00 44 1021.2
20260502091232 67 65 5.0 10.0 0.00 0.00 0.00 46 1021.5
20260502090706 67 86 5.0 10.0 0.00 0.00 0.00 45 1021.5
20260502090205 67 89 4.0 10.0 0.00 0.00 0.00 48 1021.5
20260502071206 48 222 2.0 5.0 0.00 0.00 0.00 89 1022.5
20260502070205 47 269 2.0 6.0 0.00 0.00 0.00 89 1022.5
20260502065215 45 233 2.0 3.0 0.00 0.00 0.00 90 1022.5
20260502064206 44 108 1.0 3.0 0.00 0.00 0.00 89 1022.4
20260502063705 44 178 1.0 3.0 0.00 0.00 0.00 89 1022.4
20260502063205 43 222 1.0 3.0 0.00 0.00 0.00 89 1022.4
20260502062705 43 1 1.0 3.0 0.00 0.00 0.00 88 1022.4
20260502062206 42 131 1.0 3.0 0.00 0.00 0.00 88 1022.4
20260502061713 42 222 1.0 2.0 0.00 0.00 0.00 88 1022.5
20260502061205 42 46 1.0 2.0 0.00 0.00 0.00 88 1022.5
20260502060706 42 89 1.0 3.0 0.00 0.00 0.00 87 1022.5
20260502055705 41 215 1.0 3.0 0.00 0.00 0.00 87 1022.5
20260502054205 40 178 2.0 3.0 0.00 0.00 0.00 85 1022.6
20260502053206 40 145 1.0 2.0 0.00 0.00 0.00 85 1022.6
20260502052706 40 108 1.0 2.0 0.00 0.00 0.00 84 1022.5
20260502052225 40 89 1.0 2.0 0.00 0.00 0.00 84 1022.6
20260502051705 39 117 1.0 2.0 0.00 0.00 0.00 84 1022.5
20260502050706 39 56 1.0 4.0 0.00 0.00 0.00 83 1022.6
20260502050205 39 135 1.0 4.0 0.00 0.00 0.00 83 1022.6
20260502045705 39 121 3.0 4.0 0.00 0.00 0.00 83 1022.6
20260502044705 39 72 2.0 3.0 0.00 0.00 0.00 82 1022.6
20260502044205 39 50 1.0 2.0 0.00 0.00 0.00 82 1022.6
20260502043705 39 117 1.0 2.0 0.00 0.00 0.00 81 1022.6
20260502043205 40 35 1.0 2.0 0.00 0.00 0.00 82 1022.6
20260502042705 40 89 1.0 2.0 0.00 0.00 0.00 81 1022.7
20260502042206 40 46 1.0 3.0 0.00 0.00 0.00 81 1022.7
20260502041729 40 269 1.0 3.0 0.00 0.00 0.00 81 1022.7
20260502041206 40 269 1.0 3.0 0.00 0.00 0.00 81 1022.7
20260502040704 40 257 1.0 3.0 0.00 0.00 0.00 80 1022.7
20260502040205 40 314 1.0 3.0 0.00 0.00 0.00 80 1022.7
20260502035706 40 269 1.0 3.0 0.00 0.00 0.00 80 1022.7
20260502035206 40 286 1.0 3.0 0.00 0.00 0.00 80 1022.7
20260502034705 40 262 1.0 3.0 0.00 0.00 0.00 80 1022.7
20260502032206 41 101 0.0 2.0 0.00 0.00 0.00 79 1022.8
20260502031705 41 72 0.0 1.0 0.00 0.00 0.00 78 1022.9
20260502031205 41 46 0.0 1.0 0.00 0.00 0.00 78 1022.9
20260502030705 41 240 0.0 2.0 0.00 0.00 0.00 78 1022.9
20260502030206 42 269 1.0 2.0 0.00 0.00 0.00 77 1022.9
20260502025706 42 46 1.0 3.0 0.00 0.00 0.00 77 1022.9
20260502025206 42 89 1.0 3.0 0.00 0.00 0.00 77 1022.9
20260502024709 42 89 2.0 3.0 0.00 0.00 0.00 77 1023.0
20260502024206 42 89 2.0 3.0 0.00 0.00 0.00 76 1023.0
20260502023705 42 81 1.0 2.0 0.00 0.00 0.00 76 1023.0
20260502022206 43 56 1.0 2.0 0.00 0.00 0.00 76 1023.0
20260502021706 43 108 0.0 2.0 0.00 0.00 0.00 76 1023.0
20260502021206 43 56 0.0 2.0 0.00 0.00 0.00 75 1023.1
20260502020705 43 89 1.0 3.0 0.00 0.00 0.00 75 1023.1
20260502020206 43 46 1.0 3.0 0.00 0.00 0.00 75 1023.2
20260502015705 43 108 2.0 3.0 0.00 0.00 0.00 75 1023.2
20260502015205 44 63 2.0 3.0 0.00 0.00 0.00 74 1023.2
20260502014705 44 60 2.0 3.0 0.00 0.00 0.00 74 1023.2
20260502013705 44 46 0.0 1.0 0.00 0.00 0.00 74 1023.3
20260502013205 44 46 0.0 1.0 0.00 0.00 0.00 74 1023.3
20260502012204 45 46 1.0 2.0 0.00 0.00 0.00 73 1023.3
20260502011205 45 46 1.0 2.0 0.00 0.00 0.00 72 1023.4
20260502010706 45 314 0.0 1.0 0.00 0.00 0.00 71 1023.4
20260502005706 45 295 0.0 1.0 0.00 0.00 0.00 71 1023.4
20260502005206 46 283 0.0 3.0 0.00 0.00 0.00 71 1023.4
20260502004206 46 314 1.0 2.0 0.00 0.00 0.00 70 1023.5
20260502003706 46 269 0.0 2.0 0.00 0.00 0.00 70 1023.5
20260502003205 46 269 0.0 3.0 0.00 0.00 0.00 70 1023.5
20260502002205 47 20 2.0 4.0 0.00 0.00 0.00 70 1023.6
20260502001706 47 56 3.0 4.0 0.00 0.00 0.00 70 1023.5
20260502001205 47 74 3.0 4.0 0.00 0.00 0.00 70 1023.5
20260502000705 47 56 2.0 3.0 0.00 0.00 0.00 69 1023.6
20260502000205 47 58 1.0 3.0 0.00 0.00 0.00 69 1023.6
20260501235705 47 46 1.0 2.0 0.00 0.00 0.00 68 1023.6
20260501235205 48 15 0.0 2.0 0.00 0.00 0.00 67 1023.6
20260501234705 48 1 0.0 2.0 0.00 0.00 0.00 67 1023.6
20260501234205 48 286 0.0 2.0 0.00 0.00 0.00 67 1023.7
20260501233705 48 117 1.0 2.0 0.00 0.00 0.00 66 1023.7
20260501233205 49 28 0.0 2.0 0.00 0.00 0.00 66 1023.6
20260501232705 49 46 0.0 1.0 0.00 0.00 0.00 65 1023.7
20260501232206 49 253 0.0 2.0 0.00 0.00 0.00 65 1023.6
20260501231705 49 269 0.0 3.0 0.00 0.00 0.00 65 1023.6
20260501231205 49 46 1.0 3.0 0.00 0.00 0.00 65 1023.6
20260501230705 49 46 2.0 3.0 0.00 0.00 0.00 64 1023.6
20260501230205 50 58 2.0 3.0 0.00 0.00 0.00 64 1023.6
20260501225705 50 60 2.0 3.0 0.00 0.00 0.00 64 1023.7
20260501225206 50 65 1.0 2.0 0.00 0.00 0.00 64 1023.7
20260501224706 50 39 0.0 2.0 0.00 0.00 0.00 63 1023.7
20260501223705 51 314 2.0 4.0 0.00 0.00 0.00 62 1023.7
20260501223205 51 89 2.0 4.0 0.00 0.00 0.00 62 1023.7